00:00:01,6BBE39E0,1,0,19626,0,0,145
00:00:09,6BBE3AE0,1,0,19626,0,0,145
00:00:17,6BBE3BE0,1,0,19626,0,0,145
00:00:25,6BBE3CE0,1,0,19626,0,0,145
00:00:33,6BBE3DE0,1,0,19626,0,0,146
00:00:41,6BBE3EE0,1,0,19626,0,0,146
00:00:49,6BBE3FE0,1,0,19626,0,0,146
00:00:57,6BBE40E0,1,0,19626,0,0,146
00:01:05,6BBE41E0,1,0,19626,0,0,146
00:01:13,6BBE42E0,1,0,19626,0,0,145
00:01:21,6BBE43E0,1,0,19626,0,0,145
00:01:29,6BBE44E0,1,0,19626,0,0,145
00:01:37,6BBE45E0,1,0,19626,0,0,144
00:01:45,6BBE46E0,1,0,19626,0,0,144
00:01:53,6BBE47E0,1,0,19626,0,0,144
00:02:01,6BBE48E0,1,0,19626,0,0,143
00:02:09,6BBE49E0,1,0,19626,0,0,143
00:02:17,6BBE4AE0,1,0,19626,0,0,143
00:02:25,6BBE4BE0,1,0,19626,0,0,142
00:02:33,6BBE4CE0,1,0,19626,0,0,142
00:02:41,6BBE4DE0,1,0,19626,0,0,142
00:02:49,6BBE4EE0,1,0,19626,0,0,142
00:02:57,6BBE4FE0,1,0,19626,0,0,141
00:03:05,6BBE50E0,1,0,19626,0,0,141
00:03:13,6BBE51E0,1,0,19626,0,0,141
00:03:21,6BBE52E0,1,0,19626,0,0,141
00:03:29,6BBE53E0,1,0,19626,0,0,141
00:03:37,6BBE54E0,1,0,19626,0,0,141
00:03:45,6BBE55E0,1,0,19626,0,0,141
00:03:53,6BBE56E0,1,0,19626,0,0,141
00:04:01,6BBE57E0,1,0,19626,0,0,142
00:04:09,6BBE58E0,1,0,19626,0,0,142
00:04:17,6BBE59E0,1,0,19626,0,0,142
00:04:25,6BBE5AE0,1,0,19626,0,0,142
00:04:33,6BBE5BE0,1,0,19626,0,0,143
00:04:41,6BBE5CE0,1,0,19626,0,0,143
00:04:49,6BBE5DE0,1,0,19626,0,0,143
00:04:57,6BBE5EE0,1,0,19626,0,0,143
00:05:05,6BBE5FE0,1,0,19626,0,0,144
00:05:13,6BBE60E0,1,0,19626,0,0,144
00:05:21,6BBE61E0,1,0,19626,0,0,144
00:05:29,6BBE62E0,1,0,19626,0,0,144
00:05:37,6BBE63E0,1,0,19626,0,0,144
00:05:45,6BBE64E0,1,0,19626,0,0,144
00:05:53,6BBE65E0,1,0,19626,0,0,145
00:06:01,6BBE66E0,1,0,19626,0,0,145
00:06:09,6BBE67E0,1,0,19626,0,0,145
00:06:17,6BBE68E0,1,0,19626,0,0,145
00:06:25,6BBE69E0,1,0,19626,0,0,145
00:06:33,6BBE6AE0,1,0,19626,0,0,145
00:06:41,6BBE6BE0,1,0,19626,0,0,145
00:06:49,6BBE6CE0,1,0,19626,0,0,146
00:06:57,6BBE6DE0,1,0,19626,0,0,146
00:07:05,6BBE6EE0,1,0,19626,0,0,146
00:07:13,6BBE6FE0,1,0,19626,0,0,146
00:07:21,6BBE70E0,1,0,19626,0,0,146
00:07:29,6BBE71E0,1,0,19626,0,0,145
00:07:37,6BBE72E0,1,0,19626,0,0,145
00:07:45,6BBE73E0,1,0,19626,0,0,145
00:07:53,6BBE74E0,1,0,19626,0,0,144
00:08:01,6BBE75E0,1,0,19626,0,0,144
00:08:09,6BBE76E0,1,0,19626,0,0,143
00:08:17,6BBE77E0,1,0,19626,0,0,143
00:08:25,6BBE78E0,1,0,19626,0,0,143
00:08:33,6BBE79E0,1,0,19626,0,0,142
00:08:41,6BBE7AE0,1,0,19626,0,0,142
00:08:49,6BBE7BE0,1,0,19626,0,0,142
00:08:57,6BBE7CE0,1,0,19626,0,0,142
00:09:05,6BBE7DE0,1,0,19626,0,0,141
00:09:13,6BBE7EE0,1,0,19626,0,0,141
00:09:21,6BBE7FE0,1,0,19626,0,0,141
00:09:29,6BBE80E0,1,0,19626,0,0,141
00:09:37,6BBE81E0,1,0,19626,0,0,141
00:09:45,6BBE82E0,1,0,19626,0,0,141
00:09:53,6BBE83E0,1,0,19626,0,0,141
00:10:01,6BBE84E0,1,0,19626,0,0,142
00:10:09,6BBE85E0,1,0,19626,0,0,142
00:10:17,6BBE86E0,1,0,19626,0,0,142
00:10:25,6BBE87E0,1,0,19626,0,0,142
00:10:33,6BBE88E0,1,0,19626,0,0,142
00:10:41,6BBE89E0,1,0,19626,0,0,143
00:10:49,6BBE8AE0,1,0,19626,0,0,143
00:10:57,6BBE8BE0,1,0,19626,0,0,143
00:11:05,6BBE8CE0,1,0,19626,0,0,143
00:11:13,6BBE8DE0,1,0,19626,0,0,144
00:11:21,6BBE8EE0,1,0,19626,0,0,144
00:11:29,6BBE8FE0,1,0,19626,0,0,144
00:11:37,6BBE90E0,1,0,19626,0,0,144
00:11:45,6BBE91E0,1,0,19626,0,0,144
00:11:53,6BBE92E0,1,0,19626,0,0,145
00:12:01,6BBE93E0,1,0,19626,0,0,145
00:12:09,6BBE94E0,1,0,19626,0,0,145
00:12:17,6BBE95E0,1,0,19626,0,0,145
00:12:25,6BBE96E0,1,0,19626,0,0,145
00:12:33,6BBE97E0,1,0,19626,0,0,145
00:12:41,6BBE98E0,1,0,19626,0,0,145
00:12:49,6BBE99E0,1,0,19626,0,0,146
00:12:57,6BBE9AE0,1,0,19626,0,0,146
00:13:05,6BBE9BE0,1,0,19626,0,0,146
00:13:13,6BBE9CE0,1,0,19626,0,0,146
00:13:21,6BBE9DE0,1,0,19626,0,0,146
00:13:29,6BBE9EE0,1,0,19626,0,0,145
00:13:37,6BBE9FE0,1,0,19626,0,0,145
00:13:45,6BBEA0E0,1,0,19626,0,0,145
00:13:53,6BBEA1E0,1,0,19626,0,0,145
00:14:01,6BBEA2E0,1,0,19626,0,0,144
00:14:09,6BBEA3E0,1,0,19626,0,0,144
00:14:17,6BBEA4E0,1,0,19626,0,0,143
00:14:25,6BBEA5E0,1,0,19626,0,0,143
00:14:33,6BBEA6E0,1,0,19626,0,0,143
00:14:41,6BBEA7E0,1,0,19626,0,0,142
00:14:49,6BBEA8E0,1,0,19626,0,0,142
00:14:57,6BBEA9E0,1,0,19626,0,0,142
00:15:05,6BBEAAE0,1,0,19626,0,0,142
00:15:13,6BBEABE0,1,0,19626,0,0,141
00:15:21,6BBEACE0,1,0,19626,0,0,141
00:15:29,6BBEADE0,0,0,19626,0,0,141
00:15:37,6BBEAEE0,0,0,19626,0,0,141
00:15:45,6BBEAFE0,0,0,19626,0,0,141
00:15:53,6BBEB0E0,0,0,19626,0,0,141
00:16:01,6BBEB1E0,0,0,19626,0,0,141
00:16:09,6BBEB2E0,0,0,19626,0,0,142
00:16:17,6BBEB3E0,0,0,19626,0,0,142
00:16:25,6BBEB4E0,0,0,19626,0,0,142
00:16:33,6BBEB5E0,0,0,19621,5,0,142
00:16:41,6BBEB6E0,0,0,19621,5,0,142
00:16:49,6BBEB7E0,0,0,19621,5,0,143
00:16:57,6BBEB8E0,0,0,19621,5,0,143
00:17:05,6BBEB9E0,0,0,19621,4,0,143
00:17:13,6BBEBAE0,0,0,19621,4,0,143
00:17:21,6BBEBBE0,0,0,19621,4,0,143
00:17:29,6BBEBCE0,0,0,19621,4,0,144
00:17:37,6BBEBDE0,0,0,19621,3,0,144
00:17:45,6BBEBEE0,0,0,19621,3,0,144
00:17:53,6BBEBFE0,0,0,19621,3,0,144
00:18:01,6BBEC0E0,0,0,19621,3,0,144
00:18:09,6BBEC1E0,0,0,19621,4,0,145
00:18:17,6BBEC2E0,0,0,19621,4,0,145
00:18:25,6BBEC3E0,0,0,19621,4,0,145
00:18:33,6BBEC4E0,0,0,19621,4,0,145
00:18:41,6BBEC5E0,0,0,19621,4,0,145
00:18:49,6BBEC6E0,0,0,19621,4,0,145
00:18:57,6BBEC7E0,0,0,19621,4,0,145
00:19:05,6BBEC8E0,0,0,19621,4,0,145
00:19:13,6BBEC9E0,0,0,19619,4,0,146
00:19:21,6BBECAE0,0,0,19619,4,0,146
00:19:29,6BBECBE0,0,0,19619,4,0,146
00:19:37,6BBECCE0,0,0,19619,4,0,146
00:19:45,6BBECDE0,0,0,19621,5,0,146
00:19:53,6BBECEE0,0,0,19621,5,0,145
00:20:01,6BBECFE0,0,0,19621,5,0,145
00:20:09,6BBED0E0,0,0,19621,5,0,145
00:20:17,6BBED1E0,0,0,19622,4,0,145
00:20:25,6BBED2E0,0,0,19622,4,0,144
00:20:33,6BBED3E0,0,0,19622,4,0,144
00:20:41,6BBED4E0,0,0,19622,4,0,144
00:20:49,6BBED5E0,0,0,19623,3,0,143
00:20:57,6BBED6E0,0,0,19623,3,0,143
00:21:05,6BBED7E0,0,0,19623,3,0,143
00:21:13,6BBED8E0,0,0,19623,3,0,142
00:21:21,6BBED9E0,0,0,19623,4,0,142
00:21:29,6BBEDAE0,0,0,19623,4,0,142
00:21:37,6BBEDBE0,0,0,19623,4,0,141
00:21:45,6BBEDCE0,0,0,19623,4,0,141
00:21:53,6BBEDDE0,0,0,19623,5,0,141
00:22:01,6BBEDEE0,0,0,19623,5,0,141
00:22:09,6BBEDFE0,0,0,19623,5,0,141
00:22:17,6BBEE0E0,0,0,19623,5,0,141
00:22:25,6BBEE1E0,0,0,19619,4,0,141
00:22:33,6BBEE2E0,0,0,19619,4,0,141
00:22:41,6BBEE3E0,0,0,19619,4,0,142
00:22:49,6BBEE4E0,0,0,19619,4,0,142
00:22:57,6BBEE5E0,0,0,19621,4,0,142
00:23:05,6BBEE6E0,0,0,19621,4,0,142
00:23:13,6BBEE7E0,0,0,19621,4,0,143
00:23:21,6BBEE8E0,0,0,19621,4,0,143
00:23:29,6BBEE9E0,0,0,19618,6,0,143
00:23:37,6BBEEAE0,0,0,19618,6,0,143
00:23:45,6BBEEBE0,0,0,19618,6,0,143
00:23:53,6BBEECE0,0,0,19618,6,0,144
00:24:01,6BBEEDE0,0,0,19620,4,0,144
00:24:09,6BBEEEE0,0,0,19620,4,0,144
00:24:17,6BBEEFE0,0,0,19620,4,0,144
00:24:25,6BBEF0E0,0,0,19620,4,0,144
00:24:33,6BBEF1E0,0,0,19618,6,0,145
00:24:41,6BBEF2E0,0,0,19618,6,0,145
00:24:49,6BBEF3E0,0,0,19618,6,0,145
00:24:57,6BBEF4E0,0,0,19618,6,0,145
00:25:05,6BBEF5E0,0,0,19620,4,0,145
00:25:13,6BBEF6E0,0,0,19620,4,0,145
00:25:21,6BBEF7E0,0,0,19620,4,0,145
00:25:29,6BBEF8E0,0,0,19620,4,0,146
00:25:37,6BBEF9E0,0,0,19621,4,0,146
00:25:45,6BBEFAE0,0,0,19621,4,0,146
00:25:48,6BBEFB40,0,0,19621,4,0,146
00:25:49,6BBEFB60,0,0,19621,4,0,146
00:25:50,6BBEFB80,0,0,19621,4,0,146
00:25:51,6BBEFBA0,0,0,19621,4,0,146
00:25:52,6BBEFBC0,0,0,19621,4,0,146
00:25:53,6BBEFBE0,0,0,19621,4,0,146
00:25:54,6BBEFC00,0,0,19621,4,0,146
00:25:55,6BBEFC20,0,0,19621,4,0,146
00:25:56,6BBEFC40,0,0,19621,4,0,146
00:25:57,6BBEFC60,0,0,19621,4,0,146
00:25:58,6BBEFC80,0,0,19621,4,0,146
00:25:59,6BBEFCA0,0,0,19621,4,0,146
00:26:00,6BBEFCC0,0,0,19621,4,0,146
00:26:01,6BBEFCE0,0,0,19621,4,0,146
00:26:02,6BBEFD00,0,0,19617,4,0,146
00:26:03,6BBEFD20,0,0,19617,4,0,146
00:26:04,6BBEFD40,0,0,19617,4,0,146
00:26:05,6BBEFD60,0,0,19617,4,0,146
00:26:06,6BBEFD80,0,0,19617,4,0,146
00:26:07,6BBEFDA0,0,0,19617,4,0,146
00:26:08,6BBEFDC0,0,0,19617,4,0,146
00:26:09,6BBEFDE0,0,0,19617,4,0,146
00:26:10,6BBEFE00,0,0,19617,4,0,146
00:26:11,6BBEFE20,0,0,19617,4,0,146
00:26:12,6BBEFE40,0,0,19617,4,0,146
00:26:13,6BBEFE60,0,0,19617,4,0,146
00:26:14,6BBEFE80,0,0,19617,4,0,146
00:26:15,6BBEFEA0,0,0,19617,4,0,146
00:26:16,6BBEFEC0,0,0,19617,4,0,146
00:26:17,6BBEFEE0,0,0,19617,4,0,146
00:26:18,6BBEFF00,0,0,19617,4,0,145
00:26:19,6BBEFF20,0,0,19617,4,0,145
00:26:20,6BBEFF40,0,0,19617,4,0,145
00:26:21,6BBEFF60,0,0,19617,4,0,145
00:26:22,6BBEFF80,0,0,19617,4,0,145
00:26:23,6BBEFFA0,0,0,19617,4,0,145
00:26:24,6BBEFFC0,0,0,19617,4,0,145
00:26:25,6BBEFFE0,0,0,19617,4,0,145
00:26:26,6BBF0000,0,0,19617,4,0,145
00:26:27,6BBF0020,0,0,19617,4,0,145
00:26:28,6BBF0040,0,0,19617,4,0,145
00:26:29,6BBF0060,0,0,19617,4,0,145
00:26:30,6BBF0080,0,0,19617,4,0,145
00:26:31,6BBF00A0,0,0,19617,4,0,145
00:26:32,6BBF00C0,0,0,19617,4,0,145
00:26:33,6BBF00E0,0,0,19617,4,0,145
00:26:34,6BBF0100,0,0,19616,6,0,145
00:26:35,6BBF0120,0,0,19616,6,0,145
00:26:36,6BBF0140,0,0,19616,6,0,145
00:26:37,6BBF0160,0,0,19616,6,0,145
00:26:38,6BBF0180,0,0,19616,6,0,145
00:26:39,6BBF01A0,0,0,19616,6,0,145
00:26:40,6BBF01C0,0,0,19616,6,0,145
00:26:41,6BBF01E0,0,0,19616,6,0,145
00:26:42,6BBF0200,0,0,19616,6,0,145
00:26:43,6BBF0220,0,0,19616,6,0,145
00:26:44,6BBF0240,0,0,19616,6,0,145
00:26:45,6BBF0260,0,0,19616,6,0,145
00:26:46,6BBF0280,0,0,19616,6,0,145
00:26:47,6BBF02A0,0,0,19616,6,0,145
00:26:48,6BBF02C0,0,0,19616,6,0,144
00:26:49,6BBF02E0,0,0,19616,6,0,144
00:26:50,6BBF0300,0,0,19616,6,0,144
00:26:51,6BBF0320,0,0,19616,6,0,144
00:26:52,6BBF0340,0,0,19616,6,0,144
00:26:53,6BBF0360,0,0,19616,6,0,144
00:26:54,6BBF0380,0,0,19616,6,0,144
00:26:55,6BBF03A0,0,0,19616,6,0,144
00:26:56,6BBF03C0,0,0,19616,6,0,144
00:26:57,6BBF03E0,0,0,19616,6,0,144
00:26:58,6BBF0400,0,0,19616,6,0,144
00:26:59,6BBF0420,0,0,19616,6,0,144
00:27:00,6BBF0440,0,0,19616,6,0,144
00:27:01,6BBF0460,0,0,19616,6,0,144
00:27:02,6BBF0480,0,0,19616,6,0,144
00:27:03,6BBF04A0,0,0,19616,6,0,144
00:27:04,6BBF04C0,0,0,19616,6,0,144
00:27:05,6BBF04E0,0,0,19616,6,0,144
00:27:06,6BBF0500,0,0,19619,2,0,144
00:27:07,6BBF0520,0,0,19619,2,0,144
00:27:08,6BBF0540,0,0,19619,2,0,144
00:27:09,6BBF0560,0,0,19619,2,0,144
00:27:10,6BBF0580,0,0,19619,2,0,144
00:27:11,6BBF05A0,0,0,19619,2,0,144
00:27:12,6BBF05C0,0,0,19619,2,0,143
00:27:13,6BBF05E0,0,0,19619,2,0,143
00:27:14,6BBF0600,0,0,19619,2,0,143
00:27:15,6BBF0620,0,0,19619,2,0,143
00:27:16,6BBF0640,0,0,19619,2,0,143
00:27:17,6BBF0660,0,0,19619,2,0,143
00:27:18,6BBF0680,0,0,19619,2,0,143
00:27:19,6BBF06A0,0,0,19619,2,0,143
00:27:20,6BBF06C0,0,0,19619,2,0,143
00:27:21,6BBF06E0,0,0,19619,2,0,143
00:27:22,6BBF0700,0,0,19619,2,0,143
00:27:23,6BBF0720,0,0,19619,2,0,143
00:27:24,6BBF0740,0,0,19619,2,0,143
00:27:25,6BBF0760,0,0,19619,2,0,143
00:27:26,6BBF0780,0,0,19619,2,0,143
00:27:27,6BBF07A0,0,0,19619,2,0,143
00:27:28,6BBF07C0,0,0,19619,2,0,143
00:27:29,6BBF07E0,0,0,19619,2,0,143
00:27:30,6BBF0800,0,0,19619,2,0,143
00:27:31,6BBF0820,0,0,19619,2,0,143
00:27:32,6BBF0840,0,0,19619,2,0,143
00:27:33,6BBF0860,0,0,19619,2,0,143
00:27:34,6BBF0880,0,0,19619,2,0,143
00:27:35,6BBF08A0,0,0,19619,2,0,143
00:27:36,6BBF08C0,0,0,19619,2,0,142
00:27:37,6BBF08E0,0,0,19619,2,0,142
00:27:38,6BBF0900,0,0,19618,7,0,142
00:27:39,6BBF0920,0,0,19618,7,0,142
00:27:40,6BBF0940,0,0,19618,7,0,142
00:27:41,6BBF0960,0,0,19618,7,0,142
00:27:42,6BBF0980,0,0,19618,7,0,142
00:27:43,6BBF09A0,0,0,19618,7,0,142
00:27:44,6BBF09C0,0,0,19618,7,0,142
00:27:45,6BBF09E0,0,0,19618,7,0,142
00:27:46,6BBF0A00,0,0,19618,7,0,142
00:27:47,6BBF0A20,0,0,19618,7,0,142
00:27:48,6BBF0A40,0,0,19618,7,0,142
00:27:49,6BBF0A60,0,0,19618,7,0,142
00:27:50,6BBF0A80,0,0,19618,7,0,142
00:27:51,6BBF0AA0,0,0,19618,7,0,142
00:27:52,6BBF0AC0,0,0,19618,7,0,142
00:27:53,6BBF0AE0,0,0,19618,7,0,142
00:27:54,6BBF0B00,0,0,19618,7,0,142
00:27:55,6BBF0B20,0,0,19618,7,0,142
00:27:56,6BBF0B40,0,0,19618,7,0,142
00:27:57,6BBF0B60,0,0,19618,7,0,142
00:27:58,6BBF0B80,0,0,19618,7,0,142
00:27:59,6BBF0BA0,0,0,19618,7,0,142
00:28:00,6BBF0BC0,0,0,19618,7,0,141
00:28:01,6BBF0BE0,0,0,19618,7,0,141
00:28:02,6BBF0C00,0,0,19618,7,0,141
00:28:03,6BBF0C20,0,0,19618,7,0,141
00:28:04,6BBF0C40,0,0,19618,7,0,141
00:28:05,6BBF0C60,0,0,19618,7,0,141
00:28:06,6BBF0C80,0,0,19618,7,0,141
00:28:07,6BBF0CA0,0,0,19618,7,0,141
00:28:08,6BBF0CC0,0,0,19618,7,0,141
00:28:09,6BBF0CE0,0,0,19618,7,0,141
00:28:10,6BBF0D00,0,0,19622,3,0,141
00:28:11,6BBF0D20,0,0,19622,3,0,141
00:28:12,6BBF0D40,0,0,19622,3,0,141
00:28:13,6BBF0D60,0,0,19622,3,0,141
00:28:14,6BBF0D80,0,0,19622,3,0,141
00:28:15,6BBF0DA0,0,0,19622,3,0,141
00:28:16,6BBF0DC0,0,0,19622,3,0,141
00:28:17,6BBF0DE0,0,0,19622,3,0,141
00:28:18,6BBF0E00,0,0,19622,3,0,141
00:28:19,6BBF0E20,0,0,19622,3,0,141
00:28:20,6BBF0E40,0,0,19622,3,0,141
00:28:21,6BBF0E60,0,0,19622,3,0,141
00:28:22,6BBF0E80,0,0,19622,3,0,141
00:28:23,6BBF0EA0,0,0,19622,3,0,141
00:28:24,6BBF0EC0,0,0,19622,3,0,141
00:28:25,6BBF0EE0,0,0,19622,3,0,141
00:28:26,6BBF0F00,0,0,19622,3,0,141
00:28:27,6BBF0F20,0,0,19622,3,0,141
00:28:28,6BBF0F40,0,0,19622,3,0,141
00:28:29,6BBF0F60,0,0,19622,3,0,141
00:28:30,6BBF0F80,0,0,19622,3,0,141
00:28:31,6BBF0FA0,0,0,19622,3,0,141
00:28:32,6BBF0FC0,0,0,19622,3,0,141
00:28:33,6BBF0FE0,0,0,19622,3,0,141
00:28:34,6BBF1000,0,0,19622,3,0,141
00:28:35,6BBF1020,0,0,19622,3,0,141
00:28:36,6BBF1040,0,0,19622,3,0,141
00:28:37,6BBF1060,0,0,19622,3,0,141
00:28:38,6BBF1080,0,0,19622,3,0,141
00:28:39,6BBF10A0,0,0,19622,3,0,141
00:28:40,6BBF10C0,0,0,19622,3,0,141
00:28:41,6BBF10E0,0,0,19622,3,0,141
00:28:42,6BBF1100,0,0,19617,6,0,141
00:28:43,6BBF1120,0,0,19617,6,0,141
00:28:44,6BBF1140,0,0,19617,6,0,141
00:28:45,6BBF1160,0,0,19617,6,0,141
00:28:46,6BBF1180,0,0,19617,6,0,141
00:28:47,6BBF11A0,0,0,19617,6,0,141
00:28:48,6BBF11C0,0,0,19617,6,0,141
00:28:49,6BBF11E0,0,0,19617,6,0,141
00:28:50,6BBF1200,0,0,19617,6,0,141
00:28:51,6BBF1220,0,0,19617,6,0,141
00:28:52,6BBF1240,0,0,19617,6,0,141
00:28:53,6BBF1260,0,0,19617,6,0,141
00:28:54,6BBF1280,0,0,19617,6,0,141
00:28:55,6BBF12A0,0,0,19617,6,0,141
00:28:56,6BBF12C0,0,0,19617,6,0,141
00:28:57,6BBF12E0,0,0,19617,6,0,141
00:28:58,6BBF1300,0,0,19617,6,0,142
00:28:59,6BBF1320,0,0,19617,6,0,142
00:29:00,6BBF1340,0,0,19617,6,0,142
00:29:01,6BBF1360,0,0,19617,6,0,142
00:29:02,6BBF1380,0,0,19617,6,0,142
00:29:03,6BBF13A0,0,0,19617,6,0,142
00:29:04,6BBF13C0,0,0,19617,6,0,142
00:29:05,6BBF13E0,0,0,19617,6,0,142
00:29:06,6BBF1400,0,0,19617,6,0,142
00:29:07,6BBF1420,0,0,19617,6,0,142
00:29:08,6BBF1440,0,0,19617,6,0,142
00:29:09,6BBF1460,0,0,19617,6,0,142
00:29:10,6BBF1480,0,0,19617,6,0,142
00:29:11,6BBF14A0,0,0,19617,6,0,142
00:29:12,6BBF14C0,0,0,19617,6,0,142
00:29:13,6BBF14E0,0,0,19617,6,0,142
00:29:14,6BBF1500,0,0,19617,5,0,142
00:29:15,6BBF1520,0,0,19617,5,0,142
00:29:16,6BBF1540,0,0,19617,5,0,142
00:29:17,6BBF1560,0,0,19617,5,0,142
00:29:18,6BBF1580,0,0,19617,5,0,142
00:29:19,6BBF15A0,0,0,19617,5,0,142
00:29:20,6BBF15C0,0,0,19617,5,0,142
00:29:21,6BBF15E0,0,0,19617,5,0,142
00:29:22,6BBF1600,0,0,19617,5,0,142
00:29:23,6BBF1620,0,0,19617,5,0,142
00:29:24,6BBF1640,0,0,19617,5,0,142
00:29:25,6BBF1660,0,0,19617,5,0,142
00:29:26,6BBF1680,0,0,19617,5,0,142
00:29:27,6BBF16A0,0,0,19617,5,0,142
00:29:28,6BBF16C0,0,0,19617,5,0,142
00:29:29,6BBF16E0,0,0,19617,5,0,142
00:29:30,6BBF1700,0,0,19617,5,0,143
00:29:31,6BBF1720,0,0,19617,5,0,143
00:29:32,6BBF1740,0,0,19617,5,0,143
00:29:33,6BBF1760,0,0,19617,5,0,143
00:29:34,6BBF1780,0,0,19617,5,0,143
00:29:35,6BBF17A0,0,0,19617,5,0,143
00:29:36,6BBF17C0,0,0,19617,5,0,143
00:29:37,6BBF17E0,0,0,19617,5,0,143
00:29:38,6BBF1800,0,0,19617,5,0,143
00:29:39,6BBF1820,0,0,19617,5,0,143
00:29:40,6BBF1840,0,0,19617,5,0,143
00:29:41,6BBF1860,0,0,19617,5,0,143
00:29:42,6BBF1880,0,0,19617,5,0,143
00:29:43,6BBF18A0,0,0,19617,5,0,143
00:29:44,6BBF18C0,0,0,19617,5,0,143
00:29:45,6BBF18E0,0,0,19617,5,0,143
00:29:46,6BBF1900,0,0,19614,6,0,143
00:29:47,6BBF1920,0,0,19614,6,0,143
00:29:48,6BBF1940,0,0,19614,6,0,143
00:29:49,6BBF1960,0,0,19614,6,0,143
00:29:50,6BBF1980,0,0,19614,6,0,143
00:29:51,6BBF19A0,0,0,19614,6,0,143
00:29:52,6BBF19C0,0,0,19614,6,0,143
00:29:53,6BBF19E0,0,0,19614,6,0,143
00:29:54,6BBF1A00,0,0,19614,6,0,143
00:29:55,6BBF1A20,0,0,19614,6,0,143
00:29:56,6BBF1A40,0,0,19614,6,0,143
00:29:57,6BBF1A60,0,0,19614,6,0,143
00:29:58,6BBF1A80,0,0,19614,6,0,143
00:29:59,6BBF1AA0,0,0,19614,6,0,143
00:30:00,6BBF1AC0,0,0,19614,6,0,143
00:30:01,6BBF1AE0,0,0,19614,6,0,143
00:30:02,6BBF1B00,0,0,19614,6,0,143
00:30:03,6BBF1B20,0,0,19614,6,0,143
00:30:04,6BBF1B40,0,0,19614,6,0,143
00:30:05,6BBF1B60,0,0,19614,6,0,143
00:30:06,6BBF1B80,0,0,19614,6,0,143
00:30:07,6BBF1BA0,0,0,19614,6,0,143
00:30:08,6BBF1BC0,0,0,19614,6,0,143
00:30:09,6BBF1BE0,0,0,19614,6,0,143
00:30:10,6BBF1C00,0,0,19614,6,0,143
00:30:11,6BBF1C20,0,0,19614,6,0,143
00:30:12,6BBF1C40,0,0,19614,6,0,143
00:30:13,6BBF1C60,0,0,19614,6,0,143
00:30:14,6BBF1C80,0,0,19614,6,0,143
00:30:15,6BBF1CA0,0,0,19614,6,0,143
00:30:16,6BBF1CC0,0,0,19614,6,0,144
00:30:17,6BBF1CE0,0,0,19614,6,0,144
00:30:18,6BBF1D00,0,0,19615,3,0,144
00:30:19,6BBF1D20,0,0,19615,3,0,144
00:30:20,6BBF1D40,0,0,19615,3,0,144
00:30:21,6BBF1D60,0,0,19615,3,0,144
00:30:22,6BBF1D80,0,0,19615,3,0,144
00:30:23,6BBF1DA0,0,0,19615,3,0,144
00:30:24,6BBF1DC0,0,0,19615,3,0,144
00:30:25,6BBF1DE0,0,0,19615,3,0,144
00:30:26,6BBF1E00,0,0,19615,3,0,144
00:30:27,6BBF1E20,0,0,19615,3,0,144
00:30:28,6BBF1E40,0,0,19615,3,0,144
00:30:29,6BBF1E60,0,0,19615,3,0,144
00:30:30,6BBF1E80,0,0,19615,3,0,144
00:30:31,6BBF1EA0,0,0,19615,3,0,144
00:30:32,6BBF1EC0,0,0,19615,3,0,144
00:30:33,6BBF1EE0,0,0,19615,3,0,144
00:30:34,6BBF1F00,0,0,19615,3,0,144
00:30:35,6BBF1F20,0,0,19615,3,0,144
00:30:36,6BBF1F40,0,0,19615,3,0,144
00:30:37,6BBF1F60,0,0,19615,3,0,144
00:30:38,6BBF1F80,0,0,19615,3,0,144
00:30:39,6BBF1FA0,0,0,19615,3,0,144
00:30:40,6BBF1FC0,0,0,19615,3,0,144
00:30:41,6BBF1FE0,0,0,19615,3,0,144
00:30:42,6BBF2000,0,0,19615,3,0,144
00:30:43,6BBF2020,0,0,19615,3,0,144
00:30:44,6BBF2040,0,0,19615,3,0,144
00:30:45,6BBF2060,0,0,19615,3,0,144
00:30:46,6BBF2080,0,0,19615,3,0,144
00:30:47,6BBF20A0,0,0,19615,3,0,144
00:30:48,6BBF20C0,0,0,19615,3,0,144
00:30:49,6BBF20E0,0,0,19615,3,0,144
00:30:50,6BBF2100,0,0,19616,3,0,144
00:30:51,6BBF2120,0,0,19616,3,0,144
00:30:52,6BBF2140,0,0,19616,3,0,144
00:30:53,6BBF2160,0,0,19616,3,0,144
00:30:54,6BBF2180,0,0,19616,3,0,144
00:30:55,6BBF21A0,0,0,19616,3,0,144
00:30:56,6BBF21C0,0,0,19616,3,0,145
00:30:57,6BBF21E0,0,0,19616,3,0,145
00:30:58,6BBF2200,0,0,19616,3,0,145
00:30:59,6BBF2220,0,0,19616,3,0,145
00:31:00,6BBF2240,0,0,19616,3,0,145
00:31:01,6BBF2260,0,0,19616,3,0,145
00:31:02,6BBF2280,0,0,19616,3,0,145
00:31:03,6BBF22A0,0,0,19616,3,0,145
00:31:04,6BBF22C0,0,0,19616,3,0,145
00:31:05,6BBF22E0,0,0,19616,3,0,145
00:31:06,6BBF2300,0,0,19616,3,0,145
00:31:07,6BBF2320,0,0,19616,3,0,145
00:31:08,6BBF2340,0,0,19616,3,0,145
00:31:09,6BBF2360,0,0,19616,3,0,145
00:31:10,6BBF2380,0,0,19616,3,0,145
00:31:11,6BBF23A0,0,0,19616,3,0,145
00:31:12,6BBF23C0,0,0,19616,3,0,145
00:31:13,6BBF23E0,0,0,19616,3,0,145
00:31:14,6BBF2400,0,0,19616,3,0,145
00:31:15,6BBF2420,0,0,19616,3,0,145
00:31:16,6BBF2440,0,0,19616,3,0,145
00:31:17,6BBF2460,0,0,19616,3,0,145
00:31:18,6BBF2480,0,0,19616,3,0,145
00:31:19,6BBF24A0,0,0,19616,3,0,145
00:31:20,6BBF24C0,0,0,19616,3,0,145
00:31:21,6BBF24E0,0,0,19616,3,0,145
00:31:22,6BBF2500,0,0,19614,3,0,145
00:31:23,6BBF2520,0,0,19614,3,0,145
00:31:24,6BBF2540,0,0,19614,3,0,145
00:31:25,6BBF2560,0,0,19614,3,0,145
00:31:26,6BBF2580,0,0,19614,3,0,145
00:31:27,6BBF25A0,0,0,19614,3,0,145
00:31:28,6BBF25C0,0,0,19614,3,0,145
00:31:29,6BBF25E0,0,0,19614,3,0,145
00:31:30,6BBF2600,0,0,19614,3,0,145
00:31:31,6BBF2620,0,0,19614,3,0,145
00:31:32,6BBF2640,0,0,19614,3,0,145
00:31:33,6BBF2660,0,0,19614,3,0,145
00:31:34,6BBF2680,0,0,19614,3,0,145
00:31:35,6BBF26A0,0,0,19614,3,0,145
00:31:36,6BBF26C0,0,0,19614,3,0,145
00:31:37,6BBF26E0,0,0,19614,3,0,145
00:31:38,6BBF2700,0,0,19614,3,0,145
00:31:39,6BBF2720,0,0,19614,3,0,145
00:31:40,6BBF2740,0,0,19614,3,0,145
00:31:41,6BBF2760,0,0,19614,3,0,145
00:31:42,6BBF2780,0,0,19614,3,0,145
00:31:43,6BBF27A0,0,0,19614,3,0,145
00:31:44,6BBF27C0,0,0,19614,3,0,145
00:31:45,6BBF27E0,0,0,19614,3,0,145
00:31:46,6BBF2800,0,0,19614,3,0,145
00:31:47,6BBF2820,0,0,19614,3,0,145
00:31:48,6BBF2840,0,0,19614,3,0,146
00:31:49,6BBF2860,0,0,19614,3,0,146
00:31:50,6BBF2880,0,0,19614,3,0,146
00:31:51,6BBF28A0,0,0,19614,3,0,146
00:31:52,6BBF28C0,0,0,19614,3,0,146
00:31:53,6BBF28E0,0,0,19614,3,0,146
00:31:54,6BBF2900,0,0,19615,2,0,146
00:31:55,6BBF2920,0,0,19615,2,0,146
00:31:56,6BBF2940,0,0,19615,2,0,146
00:31:57,6BBF2960,0,0,19615,2,0,146
00:31:58,6BBF2980,0,0,19615,2,0,146
00:31:59,6BBF29A0,0,0,19615,2,0,146
00:32:00,6BBF29C0,0,0,19615,2,0,146
00:32:01,6BBF29E0,0,0,19615,2,0,146
00:32:02,6BBF2A00,0,0,19615,2,0,146
00:32:03,6BBF2A20,0,0,19615,2,0,146
00:32:04,6BBF2A40,0,0,19615,2,0,146
00:32:05,6BBF2A60,0,0,19615,2,0,146
00:32:06,6BBF2A80,0,0,19615,2,0,146
00:32:07,6BBF2AA0,0,0,19615,2,0,146
00:32:08,6BBF2AC0,0,0,19615,2,0,146
00:32:09,6BBF2AE0,0,0,19615,2,0,146
00:32:10,6BBF2B00,0,0,19615,2,0,146
00:32:11,6BBF2B20,0,0,19615,2,0,146
00:32:12,6BBF2B40,0,0,19615,2,0,146
00:32:13,6BBF2B60,0,0,19615,2,0,146
00:32:14,6BBF2B80,0,0,19615,2,0,146
00:32:15,6BBF2BA0,0,0,19615,2,0,146
00:32:16,6BBF2BC0,0,0,19615,2,0,146
00:32:17,6BBF2BE0,0,0,19615,2,0,146
00:32:18,6BBF2C00,0,0,19615,2,0,146
00:32:19,6BBF2C20,0,0,19615,2,0,146
00:32:20,6BBF2C40,0,0,19615,2,0,146
00:32:21,6BBF2C60,0,0,19615,2,0,146
00:32:22,6BBF2C80,0,0,19615,2,0,146
00:32:23,6BBF2CA0,0,0,19615,2,0,146
00:32:24,6BBF2CC0,0,0,19615,2,0,146
00:32:25,6BBF2CE0,0,0,19615,2,0,146
00:32:26,6BBF2D00,0,0,19615,3,0,146
00:32:27,6BBF2D20,0,0,19615,3,0,146
00:32:28,6BBF2D40,0,0,19615,3,0,146
00:32:29,6BBF2D60,0,0,19615,3,0,146
00:32:30,6BBF2D80,0,0,19615,3,0,146
00:32:31,6BBF2DA0,0,0,19615,3,0,146
00:32:32,6BBF2DC0,0,0,19615,3,0,146
00:32:33,6BBF2DE0,0,0,19615,3,0,146
00:32:34,6BBF2E00,0,0,19615,3,0,146
00:32:35,6BBF2E20,0,0,19615,3,0,146
00:32:36,6BBF2E40,0,0,19615,3,0,145
00:32:37,6BBF2E60,0,0,19615,3,0,145
00:32:38,6BBF2E80,0,0,19615,3,0,145
00:32:39,6BBF2EA0,0,0,19615,3,0,145
00:32:40,6BBF2EC0,0,0,19615,3,0,145
00:32:41,6BBF2EE0,0,0,19615,3,0,145
00:32:42,6BBF2F00,0,0,19615,3,0,145
00:32:43,6BBF2F20,0,0,19615,3,0,145
00:32:44,6BBF2F40,0,0,19615,3,0,145
00:32:45,6BBF2F60,0,0,19615,3,0,145
00:32:46,6BBF2F80,0,0,19615,3,0,145
00:32:47,6BBF2FA0,0,0,19615,3,0,145
00:32:48,6BBF2FC0,0,0,19615,3,0,145
00:32:49,6BBF2FE0,0,0,19615,3,0,145
00:32:50,6BBF3000,0,0,19615,3,0,145
00:32:51,6BBF3020,0,0,19615,3,0,145
00:32:52,6BBF3040,0,0,19615,3,0,145
00:32:53,6BBF3060,0,0,19615,3,0,145
00:32:54,6BBF3080,0,0,19615,3,0,145
00:32:55,6BBF30A0,0,0,19615,3,0,145
00:32:56,6BBF30C0,0,0,19615,3,0,145
00:32:57,6BBF30E0,0,0,19615,3,0,145
00:32:58,6BBF3100,0,0,19615,2,0,145
00:32:59,6BBF3120,0,0,19615,2,0,145
00:33:00,6BBF3140,0,0,19615,2,0,145
00:33:01,6BBF3160,0,0,19615,2,0,145
00:33:02,6BBF3180,0,0,19615,2,0,145
00:33:03,6BBF31A0,0,0,19615,2,0,145
00:33:04,6BBF31C0,0,0,19615,2,0,145
00:33:05,6BBF31E0,0,0,19615,2,0,145
00:33:06,6BBF3200,0,0,19615,2,0,144
00:33:07,6BBF3220,0,0,19615,2,0,144
00:33:08,6BBF3240,0,0,19615,2,0,144
00:33:09,6BBF3260,0,0,19615,2,0,144
00:33:10,6BBF3280,0,0,19615,2,0,144
00:33:11,6BBF32A0,0,0,19615,2,0,144
00:33:12,6BBF32C0,0,0,19615,2,0,144
00:33:13,6BBF32E0,0,0,19615,2,0,144
00:33:14,6BBF3300,0,0,19615,2,0,144
00:33:15,6BBF3320,0,0,19615,2,0,144
00:33:16,6BBF3340,0,0,19615,2,0,144
00:33:17,6BBF3360,0,0,19615,2,0,144
00:33:18,6BBF3380,0,0,19615,2,0,144
00:33:19,6BBF33A0,0,0,19615,2,0,144
00:33:20,6BBF33C0,0,0,19615,2,0,144
00:33:21,6BBF33E0,0,0,19615,2,0,144